Regional Weather Roundup
Issued by NWS Midland/Odessa, TX

Skip options and go directly to product.
Home | Oldest Version | Next Version | Current Version | All | Text Only | Save Text | Print | Product List | Glossary On

Skip product version selection by date and time.   
168
ASUS44 KMAF 280610
RWRMAF
MIDLAND AREA WEATHER ROUNDUP
NATIONAL WEATHER SERVICE MIDLAND TX
100 AM CDT TUE JUL 28 2015

...IN SOUTHWEST TEXAS AND SOUTHEAST NEW MEXICO...

CITY           SKY/WX    TMP DP  RH WIND       PRES   REMARKS
ALPINE         PTCLDY    72  59  62 SW7       30.13S
ANDREWS        FAIR      85  57  38 S14       29.98S
ARTESIA        PTCLDY    84  59  42 S7        29.97R
BIG SPRING     CLEAR     83  56  39 SE12      29.98R
CARLSBAD       MOCLDY    83  58  42 S7        29.95R
DRYDEN           N/A     88  62  41 SE10      29.94S
FORT STOCKTON  LGT RAIN  83  60  45 SE15G24   29.97S
GUAD PASS      PTCLDY    76  56  49 SW6       30.15S
HOBBS          PTCLDY    79  57  47 SE8       30.01S
MARFA          MOCLDY    66  64  94 N5        30.13F
MIDLAND AIRPK  CLEAR     87  57  35 S12       29.96F
MIDLAND INTL   CLEAR     86  59  39 S9        29.96S
ODESSA         CLEAR     87  57  35 S14       29.97F
PECOS          CLEAR     85  57  38 SE13      29.93R
PRESIDIO       FAIR      84  58  40 MISG      29.96S
SEMINOLE       CLEAR     82  54  37 S5        30.00S
SNYDER         CLEAR     83  64  50 SE10      29.96S
WINK           CLEAR     87  58  37 S18       29.93S
$$
...OTHER STATIONS IN TEXAS...

CITY           SKY/WX    TMP DP  RH WIND       PRES   REMARKS
ABILENE        CLEAR     82  65  56 SE13      29.95S
AMARILLO       CLEAR     81  63  54 S20       29.99R
AUSTIN         CLEAR     78  74  87 S9        29.96S
BROWNSVILLE    PTCLDY    82  78  88 SE13      29.92S
CORPUS CHRISTI CLEAR     81  76  84 SE9       29.93S
DALLAS FTW     CLEAR     85  67  54 S7        29.92S
DEL RIO        CLEAR     87  72  60 E15       29.89R
EL PASO        CLOUDY    88  52  29 W13G20    30.00R
HOUSTON INT    PTCLDY    82  76  81 S5        29.96S
LUBBOCK        PTCLDY    80  63  55 SE10      29.99R
SAN ANGELO     CLEAR     86  62  44 S12       29.93S
SAN ANTONIO    CLEAR     79  73  82 SE9       29.97S
WACO           CLEAR     85  70  60 S14       29.94R
WICHITA FALLS  NOT AVBL
$$
...OTHER LOCATIONS IN NEW MEXICO...

CITY           SKY/WX    TMP DP  RH WIND       PRES   REMARKS
ALAMAGORDO     MOCLDY    81  52  36 S7        30.03R
ALBUQUERQUE    PTCLDY    78  50  37 SE5       30.08S
CANNON AFB     CLOUDY    74  61  62 NW13      30.06F
CLOVIS         MOCLDY    75  57  53 W13       30.07S
HOLLOMAN AFB   MOCLDY    84  54  35 SE9       29.99S
ROSWELL        PTCLDY    82  57  42 S5        29.97R
RUIDOSO          N/A    N/A N/A N/A MISG        N/A
SANTA FE         N/A     70  50  49 E6        30.16R
TRUTH OR CONSE MOCLDY    79  54  41 W7        30.04R
TUCUMCARI      CLOUDY    85  52  32 S24G38    29.97S
$$

USA.gov is the U.S. government's official web portal to all federal, state and local government web resources and services.